Estación Meteorológica Peña el Pijo (Robertgarden) [ 07/07/20 11:50:29 CEST ]

Fecha Hora Presion(HPa) Temp (°C) Humedad % Rocio (°C) Viento ( m/s) Direccion Lluvia 1Hora(mm) Lluvia 24H(mm) LLuvia Total(mm)
2020-Apr-21 01:09:09 999.400 - - - - W     39.88
2020-Apr-21 02:08:53 999.700 - - - - W     39.88
2020-Apr-21 03:08:56 998.700 - - - - W     39.88
2020-Apr-21 04:09:11 997.700 - - - - W     39.88
2020-Apr-21 05:09:07 997.100 - - - - W     39.88
2020-Apr-21 06:09:17 996.600 - - - - W     39.88
2020-Apr-21 07:09:43 996.600 - - - - W     39.88
2020-Apr-21 08:10:35 997.100 - - - - W     39.88
2020-Apr-21 09:10:21 997.500 - - - - W     39.88
2020-Apr-21 10:09:33 997.500 - - - - W     39.88
2020-Apr-21 11:09:41 998.300 - - - - W     39.88
2020-Apr-21 12:09:03 998.300 - - - - W     39.88
2020-Apr-21 13:09:05 998.300 - - - - W     39.88
2020-Apr-21 14:08:59 998.000 - - - - W     39.88
2020-Apr-21 15:09:09 998.100 - - - - W     39.88
2020-Apr-21 16:09:36 997.800 - - - - W     39.88
2020-Apr-21 17:09:20 998.000 - - - - W     39.88
2020-Apr-21 18:09:24 998.100 - - - - W     39.88
2020-Apr-21 19:09:10 998.500 - - - - W     39.88
2020-Apr-21 20:09:21 998.500 - - - - W     39.88
2020-Apr-21 21:09:19 999.400 - - - - W     39.88
2020-Apr-21 22:09:11 1000.300 - - - - W     39.88
2020-Apr-21 23:09:29 1000.300 - - - - W     39.88

Temperatura Máxima:    Temperatura Mínima:
Presión Máxima:1000.300 Hpa    Presión Mínima:996.600 Hpa


Volver